Regional Weather Roundup
Issued by NWS Grand Forks, ND

Home | Current Version | Previous Version | Graphics & Text | Print | Product List | Glossary On
Versions: 1 2 3 4 5 6 7 8 9 10 11 12 13 14 15 16 17 18 19 20 21 22 23 24 25 26 27 28 29 30 31 32 33 34 35 36 37 38 39 40 41 42 43 44 45 46 47 48 49 50
000
ASUS43 KFGF 290731
RWRFGF
PRAIRIE TO PINES  WEATHER ROUNDUP
NATIONAL WEATHER SERVICE EASTERN NORTH DAKOTA/GRAND FORKS ND
200 AM CDT SAT AUG 29 2015

 **SATELLITE DATA USED TO AUGMENT SKY COVER AT AUTOMATED STATIONS**
 *****  WEATHER ACROSS EASTERN NORTH DAKOTA  *****

CITY           SKY/WX    TMP DP  RH WIND       PRES   REMARKS
GRAND FORKS    CLEAR     65  64  97 S6        29.87F
GRAND FRKS AFB CLEAR     63  63 100 SW3       29.88S FOG
GRAND FRKS NWS   N/A     66 N/A N/A S6          N/A
DEVILS LAKE    MOCLDY    63  55  77 CALM      29.88F VSB<1/4
FARGO          CLEAR     68  62  81 S12       29.92F
WAHPETON ARPT  SUNNY     63  59  88 S9        29.96S
$$

 ***** WEATHER ACROSS CENTRAL AND WESTERN NORTH DAKOTA  *****

CITY           SKY/WX    TMP DP  RH WIND       PRES   REMARKS
BISMARCK       FOG       61  60  97 CALM      29.91S VSB 1/2
MINOT          CLOUDY    65  60  84 SE3       29.87F
JAMESTOWN      CLEAR     65  63  93 S8        29.91F
MINOT AFB      CLEAR     62  61  99 S8        29.86F
GARRISON         N/A     60  27  28 CALM      29.91S
WILLISTON      CLOUDY    61  49  64 S3        29.93R HAZE
DICKINSON      CLOUDY    58  47  66 S3        29.96S HAZE
HETTINGER      CLOUDY    55  49  80 CALM      30.01S HAZE
$$

 *****  OTHER AIRPORT OBSERVATIONS IN OUR AREA  *****

CITY           SKY/WX    TMP DP  RH WIND       PRES   REMARKS
WALHALLA       FAIR      59  59 100 MISG      29.89S FOG
GRAFTON AIRPOR FAIR      61  61 100 CALM      29.88S FOG
VALLEY CITY AR CLOUDY    66  66 100 SW12      29.92F
CANDO          FAIR      61  59  94 E6        29.90S
CAVALIER APRT  FOG       63  63 100 NW3       29.87S VSB 3/4
GWINNER          N/A     66  66 100 SW13      29.95F
ROLLA          CLOUDY    55  55 100 CALM      29.92S
 ***** THE ABOVE OBSERVATIONS ARE NON NWS ARE NOT QUALITY
       CONTROLLED AND MAY MIS-REPORT RAIN FOR SNOW...
$$

  *****  WEATHER ACROSS NORTHERN MINNESOTA  *****

CITY           SKY/WX    TMP DP  RH WIND       PRES   REMARKS
FLAG ISLAND    CLEAR     66  64  94 CALM      29.89R FOG
WARROAD        CLOUDY    66  63  88 CALM      29.91S
ROSEAU         PTCLDY    61  55  82 S3        29.91R HAZE
HALLOCK        CLEAR     63  63 100 SE6       29.87S FOG
THF RVR FALLS  CLEAR    N/A N/A N/A S8        29.90S
BAUDETTE       PTCLDY    67  65  93 SW5       29.91S
WASKISH        MOCLDY    68  64  88 CALM      29.94S
CROOKSTON      CLEAR     66  64  94 S8        29.90S
STEPHEN NDAWN    N/A     66  66 100 S5          N/A
GREENBUSH NDAW   N/A     63  63 100 E2          N/A
$$
  *****  WEATHER ACROSS CENTRAL AND WEST MINNESOTA  *****

CITY           SKY/WX    TMP DP  RH WIND       PRES   REMARKS
FOSSTON        CLEAR     63  61  94 S10       29.95R
BEMIDJI        PTCLDY    64  62  91 S7        29.97R
PARK RAPIDS    CLEAR     64  60  87 S6        29.98S
ELBOW LAKE     FAIR      59  58  96 S7        29.99S
WADENA         CLEAR     61  59  94 SW5       29.98F
DETROIT LAKES  CLEAR     64  61  88 S9        29.98S
MOORHEAD       CLEAR     64  61  88 S12       29.94S
FERGUS FALLS   CLEAR     63  63 100 S9        29.98S
MORRIS MN      CLEAR     57  57 100 S7        29.99F
STAPLES        CLEAR     59  57  94 S7        30.00S
$$
  *****  WEATHER ELSEWHERE ACROSS MINNESOTA  *****

CITY           SKY/WX    TMP DP  RH WIND       PRES   REMARKS
DULUTH         PTCLDY    60  56  86 SW6       30.03R
INTRNTL FALLS  CLOUDY    67  64  90 SE3       29.94R
ELY            CLOUDY    55  54  94 SE5       30.04F
CLOQUET        PTCLDY    59  55  88 S5        30.03S
WHEATON        CLEAR     61  57  88 S9        29.99S
BRAINERD       CLEAR     61  58  90 S8        30.01S
HIBBING        CLOUDY    66  60  81 SW5       29.99S
ALEXANDRIA     CLEAR     61  58  90 S9        30.01F
SAINT CLOUD    CLEAR     56  54  93 S3        30.02F
MINNEAPOLIS    CLEAR     59  55  87 E7        30.03F
$$

  *****  WEATHER ACROSS SOUTH DAKOTA  *****

CITY           SKY/WX    TMP DP  RH WIND       PRES   REMARKS
SIOUX FALLS    FOG       55  54  96 CALM      30.03F VSB 3/4
BROOKINGS      CLEAR     55  54  94 CALM      30.05S VSB 1
WATERTOWN      CLEAR     60  57  89 S8        30.02S
HURON          CLEAR     63  61  93 S10       30.00S
SISSETON         N/A     60  59  96 S5        29.96S
ABERDEEN       CLEAR     64  62  93 S8        29.97S
MITCHELL       CLEAR     62  60  93 S9        30.02F
PIERRE         CLEAR     66  63  90 S5        29.97F
MOBRIDGE       CLEAR     68  68 100 SE9       29.93F
RAPID CITY     CLEAR     60  56  86 NW3       30.07F
$$

  *****  SOME WEATHER IN NEARBY STATES *****

CITY           SKY/WX    TMP DP  RH WIND       PRES   REMARKS
GLASGOW MT     PTCLDY    64  42  44 E12       29.89F HAZE
GREAT FALLS MT CLOUDY    71  41  33 S6        29.98S HAZE
CHEYENNE WY    CLEAR     54  45  71 W7        30.33S
SCOTTSBLUFF NE CLEAR     61  50  67 CALM      30.17S
OMAHA NE       CLOUDY    63  62  97 N10       29.97S
DES MOINES IA  FOG       68  66  93 W7        29.90S VSB 1/2
DAVENPORT IA   LGT RAIN  65  63  93 SE10      29.98F
CHICAGO IL     CLOUDY    68  63  84 SE5       30.06F
EAU CLAIRE WI  CLEAR     54  52  93 NE5       30.04F
LA CROSSE WI   CLOUDY    61  58  90 NE5       30.01S
$$

  *****  SOME NATIONAL WEATHER *****

CITY           SKY/WX    TMP DP  RH WIND       PRES   REMARKS
LA GUARDIA NY  PTCLDY    72  55  55 CALM      30.18S
RALEIGH NC     MOCLDY    64  60  87 CALM      30.20F
ATLANTA GA     MOCLDY    73  68  84 E6        30.16F
NEW ORLEANS LA PTCLDY    79  67  66 SE8       30.00S
OKLAHOMA CITY  MOCLDY    71  66  84 S7        29.97S
ALBUQUERQUE NM MOCLDY    72  49  44 SE13      30.28R
SALT LAKE CITY MOCLDY    77  39  25 SE10      30.04F
LOS ANGELES CA CLEAR     74  66  76 SW3       29.86S
BOISE ID       CLOUDY    80  40  23 S12       29.85R
SEATTLE WA     CLOUDY    66  59  78 NE9       29.69F
$$

*** WEATHER ACROSS MANITOBA...SASKATCHEWAN AND ONTARIO ***
                ***ONTARIO***

CITY           SKY/WX    TMP DP  RH WIND       PRES   REMARKS
GERALDTON      FOG       59  59 100 SW6       29.90S VSB 1
THUNDER BAY    CLOUDY    61  61 100 CALM      29.93R
SIOUX LOOKOUT  PTCLDY    63  63 100 SW5       29.89R FOG
TORONTO        MOCLDY    61  57  88 S2        30.14F
BIG TROUT LK   CLEAR     59  55  88 S8        29.82F
PICKLE LAKE    NOT AVBL
DRYDEN         PTCLDY    63  61  94 S8        29.90S FOG
KENORA         PTCLDY    64  63  94 CALM      29.90R
$$
                *** MANITOBA***

CITY           SKY/WX    TMP DP  RH WIND       PRES   REMARKS
BRANDON        PTCLDY    59  59 100 E5        29.89F
DAUPHIN        CLEAR     55  52  88 W5        29.84F
ISLAND LAKE    PTCLDY    63  59  88 SW5       29.79S
PILOT MOUND      N/A     57  57 100 E6          N/A
THE PAS        CLOUDY    63  54  72 S5        29.76F
THOMPSON       PTCLDY    55  52  88 CALM      29.69S
WINNIPEG       CLEAR     61  61 100 CALM      29.88S
LYNN LAKE      CLEAR     54  46  76 MISG      29.68S
CHURCHILL      MOCLDY    55  55 100 S7        29.58S
$$
                ***SASKATCHEWAN***

CITY           SKY/WX    TMP DP  RH WIND       PRES   REMARKS
ESTEVAN        CLOUDY    55  54  94 SW9       29.90R SMOKE
KINDERSLEY     PTCLDY    63  48  59 SW9       29.76F
LLOYDMINSTER   PTCLDY    63  54  72 S12       29.65F HAZE
PRINCE ALBERT  CLOUDY    64  59  82 S5        29.73F
REGINA         CLOUDY    59  55  88 SE7       29.85S
YORKTON        CLEAR     63  57  82 S9        29.85S
N. BATTLEFORD  CLEAR     61  54  77 E6        29.70F HAZE
LA RONGE       CLEAR     61  54  77 S5        29.68F
SASKATOON      MOCLDY    70  59  68 S12       29.74F
SWIFT CURRENT  CLEAR     70  45  40 S10G18    29.84F HAZE
$$
NOTE: THESE ARE AUTOMATED STATIONS WITH LIMITED QUALITY CONTROL
      "FAIR" INDICATES FEW OR NO CLOUDS BELOW 12,000 FEET WITH NO
      SIGNIFICANT WEATHER AND/OR OBSTRUCTIONS TO VISIBILITY.
      SKY/WX - SKY CONDITION AND SIGNIFICANT WEATHER.
      TMP - AIR TEMPERATURE.    DP   - DEWPOINT TEMPERATURE.
      RH  - RELATIVE HUMIDITY.  PRES - PRESSURE.
      HX  - HEAT INDEX.         WCI  - WIND CHILL INDEX.
$


USA.gov is the U.S. government's official web portal to all federal, state and local government web resources and services.